contact:dominique.lefevre@mio.osupytheas.fr, maurice.libes@osupytheas.fr, didier.mallarino@osupytheas.fr
Project:EMSO http://www.emso-fr.org/EMSO-France
Depth: 2436.0 m
Title:EMSO Ligure Ouest : Data MII capteur AQUADOPP
Date,Latitude,Longitude,X_East,Y_North,Z_Up,Amplitude_X,Amplitude_Y,Amplitude_Z,Batterie,SoundSpeed,Heading,Pitch,Roll,Pressure,TIS,Speed,Direction
, degrees North, degrees East, m.s-1, m.s-1,m.s-1, 1, 1, 1, Volt, m.s-1, degree, degree, degree, dbar, degree_C, m.s-1, degree
2021-09-10T00:04:03,42.805,6.029,-0.05,-0.002,-0.014,103.0,102.0,101.0,13.3,1505.2,328.5,-0.7,1.8,2470.688,13.28,0.05,267.7
2021-09-10T00:07:03,42.805,6.029,-0.025,-0.004,-0.012,102.0,102.0,101.0,13.4,1505.2,326.1,-0.8,1.8,2470.663,13.28,0.025,260.9
2021-09-10T00:10:03,42.805,6.029,-0.033,-0.007,-0.013,102.0,102.0,100.0,13.3,1505.2,331.5,-0.8,1.8,2470.644,13.28,0.033,258.0
2021-09-10T00:13:03,42.805,6.029,-0.031,0.0,-0.028,102.0,102.0,101.0,13.4,1505.2,331.2,-0.8,1.8,2470.679,13.28,0.03,270.0
2021-09-10T00:16:03,42.805,6.029,-0.021,-0.002,-0.029,103.0,102.0,100.0,13.3,1505.2,326.6,-0.8,1.8,2470.68,13.28,0.021,264.6
2021-09-10T00:19:03,42.805,6.029,-0.029,0.001,-0.025,102.0,102.0,101.0,13.4,1505.2,326.8,-0.7,1.8,2470.642,13.28,0.029,272.0
2021-09-10T00:22:03,42.805,6.029,-0.013,0.001,-0.013,102.0,103.0,100.0,13.4,1505.2,327.1,-0.7,1.8,2470.689,13.28,0.013,274.4
2021-09-10T00:25:03,42.805,6.029,-0.011,0.004,0.004,104.0,102.0,101.0,13.3,1505.2,329.2,-0.8,1.8,2470.661,13.28,0.011,290.0
2021-09-10T00:28:03,42.805,6.029,-0.013,0.002,-0.018,103.0,102.0,101.0,13.4,1505.2,325.8,-0.7,1.8,2470.63,13.29,0.013,278.7
2021-09-10T00:31:03,42.805,6.029,-0.025,-0.002,-0.015,103.0,104.0,101.0,13.3,1505.2,325.4,-0.8,1.8,2470.632,13.28,0.025,265.4
2021-09-10T00:34:03,42.805,6.029,-0.023,-0.004,-0.015,103.0,103.0,102.0,13.3,1505.2,330.2,-0.8,1.8,2470.633,13.28,0.023,260.1
2021-09-10T00:37:03,42.805,6.029,-0.03,-0.011,0.004,103.0,102.0,102.0,13.3,1505.2,331.4,-0.8,1.8,2470.639,13.29,0.031,249.9
2021-09-10T00:40:03,42.805,6.029,-0.015,0.006,0.023,103.0,102.0,101.0,13.4,1505.2,327.2,-0.8,1.8,2470.593,13.29,0.016,291.8
2021-09-10T00:43:03,42.805,6.029,-0.032,0.003,-0.02,103.0,102.0,102.0,13.4,1505.2,326.4,-0.7,1.8,2470.599,13.29,0.032,275.4
2021-09-10T00:46:03,42.805,6.029,-0.03,-0.009,-0.019,101.0,103.0,101.0,13.3,1505.2,330.4,-0.7,1.8,2470.622,13.29,0.031,253.3
2021-09-10T00:49:03,42.805,6.029,-0.023,-0.028,0.0,102.0,101.0,101.0,13.3,1505.2,328.7,-0.7,1.8,2470.62,13.29,0.036,219.4
2021-09-10T00:52:03,42.805,6.029,-0.01,-0.006,-0.013,101.0,102.0,102.0,13.4,1505.2,327.0,-0.8,1.8,2470.608,13.29,0.011,239.0
2021-09-10T00:55:03,42.805,6.029,-0.035,0.007,-0.001,103.0,100.0,101.0,13.4,1505.2,330.9,-0.7,1.8,2470.587,13.29,0.035,281.3
2021-09-10T00:58:03,42.805,6.029,-0.002,-0.031,-0.044,102.0,102.0,102.0,13.4,1505.2,327.0,-0.8,1.8,2470.619,13.29,0.031,183.7
2021-09-10T01:04:03,42.805,6.029,-0.022,-0.019,-0.059,105.0,103.0,103.0,13.4,1505.2,331.0,-0.8,1.8,2470.613,13.28,0.029,229.2
2021-09-10T01:07:03,42.805,6.029,-0.011,-0.007,-0.038,103.0,103.0,101.0,13.4,1505.2,330.5,-0.8,1.8,2470.643,13.28,0.013,237.5
2021-09-10T01:10:03,42.805,6.029,-0.029,-0.006,-0.019,101.0,101.0,102.0,13.4,1505.2,330.7,-0.8,1.8,2470.633,13.28,0.029,258.3
2021-09-10T01:13:03,42.805,6.029,-0.021,-0.01,-0.046,102.0,103.0,100.0,13.4,1505.2,330.2,-0.7,1.8,2470.603,13.28,0.023,244.5
2021-09-10T01:16:03,42.805,6.029,-0.029,-0.001,-0.001,102.0,102.0,101.0,13.3,1505.2,330.0,-0.7,1.8,2470.642,13.28,0.029,268.0
2021-09-10T01:19:03,42.805,6.029,-0.017,-0.018,-0.039,104.0,102.0,101.0,13.4,1505.2,326.6,-0.8,1.8,2470.614,13.29,0.024,223.4
2021-09-10T01:22:03,42.805,6.029,-0.016,-0.021,-0.024,102.0,104.0,99.0,13.4,1505.2,328.8,-0.7,1.8,2470.615,13.29,0.026,217.3
2021-09-10T01:25:03,42.805,6.029,-0.02,0.003,0.004,102.0,102.0,101.0,13.4,1505.2,325.5,-0.7,1.8,2470.566,13.29,0.02,278.5
2021-09-10T01:28:03,42.805,6.029,-0.017,0.003,-0.014,102.0,101.0,102.0,13.4,1505.2,331.1,-0.8,1.8,2470.573,13.29,0.017,280.0
2021-09-10T01:31:03,42.805,6.029,-0.008,0.002,-0.007,103.0,103.0,101.0,13.4,1505.2,326.5,-0.8,1.8,2470.573,13.29,0.008,284.0
2021-09-10T01:34:03,42.805,6.029,0.006,-0.005,-0.062,102.0,101.0,101.0,13.4,1505.2,329.5,-0.7,1.8,2470.594,13.29,0.007,129.8
2021-09-10T01:37:03,42.805,6.029,-0.036,-0.007,-0.017,103.0,103.0,99.0,13.4,1505.2,329.1,-0.7,1.8,2470.566,13.29,0.036,259.0
2021-09-10T01:40:03,42.805,6.029,-0.003,0.004,-0.004,102.0,102.0,100.0,13.3,1505.2,325.8,-0.7,1.8,2470.593,13.29,0.005,323.1
2021-09-10T01:43:03,42.805,6.029,-0.025,-0.016,-0.03,102.0,102.0,101.0,13.4,1505.2,327.2,-0.8,1.8,2470.587,13.29,0.029,237.4
2021-09-10T01:46:03,42.805,6.029,-0.014,-0.002,-0.018,103.0,103.0,100.0,13.3,1505.2,326.0,-0.7,1.8,2470.555,13.29,0.014,261.9
2021-09-10T01:49:03,42.805,6.029,-0.028,-0.001,-0.014,102.0,103.0,101.0,13.4,1505.2,325.6,-0.7,1.8,2470.579,13.29,0.028,268.0
2021-09-10T01:52:03,42.805,6.029,-0.019,-0.019,-0.032,102.0,102.0,101.0,13.4,1505.2,330.0,-0.8,1.8,2470.572,13.29,0.026,225.0
2021-09-10T01:55:03,42.805,6.029,-0.01,-0.014,-0.006,102.0,102.0,101.0,13.4,1505.2,330.9,-0.8,1.8,2470.559,13.29,0.017,215.5
2021-09-10T01:58:03,42.805,6.029,-0.007,0.013,-0.003,103.0,101.0,100.0,13.3,1505.2,326.9,-0.7,1.8,2470.552,13.29,0.014,331.7
2021-09-10T02:04:03,42.805,6.029,-0.013,0.0,-0.003,102.0,103.0,101.0,13.4,1505.2,327.3,-0.8,1.8,2470.609,13.28,0.013,270.0
2021-09-10T02:07:03,42.805,6.029,0.002,-0.001,-0.003,102.0,101.0,101.0,13.3,1505.2,330.5,-0.7,1.8,2470.576,13.28,0.002,116.6
2021-09-10T02:10:03,42.805,6.029,-0.019,-0.024,-0.003,102.0,101.0,100.0,13.4,1505.2,329.8,-0.8,1.8,2470.578,13.28,0.03,218.4
2021-09-10T02:13:03,42.805,6.029,-0.006,-0.001,-0.023,103.0,103.0,100.0,13.4,1505.2,327.9,-0.8,1.8,2470.613,13.28,0.006,260.5
2021-09-10T02:16:03,42.805,6.029,-0.002,-0.021,-0.001,105.0,102.0,100.0,13.4,1505.2,329.7,-0.7,1.8,2470.558,13.28,0.021,185.4
2021-09-10T02:19:03,42.805,6.029,-0.008,0.0,-0.011,103.0,102.0,100.0,13.3,1505.2,328.4,-0.7,1.8,2470.54,13.29,0.008,270.0
2021-09-10T02:22:03,42.805,6.029,-0.002,0.02,-0.008,101.0,103.0,101.0,13.4,1505.2,329.2,-0.8,1.8,2470.529,13.29,0.02,354.3
2021-09-10T02:25:03,42.805,6.029,-0.01,-0.01,-0.033,103.0,102.0,101.0,13.4,1505.2,325.8,-0.8,1.8,2470.579,13.29,0.014,225.0
2021-09-10T02:28:03,42.805,6.029,0.012,-0.023,-0.036,102.0,102.0,100.0,13.4,1505.2,325.9,-0.7,1.8,2470.566,13.29,0.025,152.4
2021-09-10T02:31:03,42.805,6.029,-0.004,-0.009,-0.019,102.0,101.0,101.0,13.4,1505.2,329.1,-0.8,1.8,2470.535,13.29,0.009,204.0
2021-09-10T02:34:03,42.805,6.029,0.004,-0.003,-0.01,102.0,102.0,102.0,13.4,1505.2,330.3,-0.7,1.9,2470.547,13.29,0.005,126.9
2021-09-10T02:37:03,42.805,6.029,-0.022,0.0,-0.013,102.0,101.0,101.0,13.4,1505.2,328.9,-0.8,1.8,2470.557,13.29,0.022,270.0
2021-09-10T02:40:03,42.805,6.029,-0.018,-0.019,-0.015,103.0,101.0,101.0,13.4,1505.2,327.8,-0.7,1.9,2470.533,13.29,0.026,223.5
2021-09-10T02:43:03,42.805,6.029,-0.024,-0.014,-0.053,103.0,103.0,101.0,13.4,1505.2,328.4,-0.7,1.8,2470.592,13.29,0.027,239.7
2021-09-10T02:46:03,42.805,6.029,-0.012,-0.023,0.001,101.0,101.0,101.0,13.4,1505.2,328.0,-0.8,1.8,2470.557,13.29,0.025,207.6
2021-09-10T02:49:03,42.805,6.029,0.003,-0.033,-0.008,101.0,102.0,102.0,13.4,1505.2,325.2,-0.8,1.8,2470.491,13.29,0.033,174.8
2021-09-10T02:52:03,42.805,6.029,-0.034,0.008,-0.006,102.0,102.0,101.0,13.4,1505.2,328.8,-0.8,1.8,2470.544,13.29,0.034,283.2
2021-09-10T02:55:03,42.805,6.029,-0.016,-0.004,-0.005,103.0,102.0,102.0,13.4,1505.2,328.1,-0.8,1.8,2470.53,13.29,0.016,256.0
2021-09-10T02:58:03,42.805,6.029,0.007,-0.017,-0.055,102.0,103.0,101.0,13.4,1505.2,329.0,-0.7,1.8,2470.538,13.29,0.018,157.6
2021-09-10T03:04:03,42.805,6.029,-0.017,-0.022,-0.03,102.0,101.0,101.0,13.4,1505.2,329.1,-0.8,1.8,2470.567,13.28,0.027,217.7
2021-09-10T03:07:03,42.805,6.029,-0.031,0.005,0.001,102.0,102.0,101.0,13.3,1505.2,329.5,-0.8,1.8,2470.527,13.28,0.031,279.2
2021-09-10T03:10:03,42.805,6.029,-0.018,0.004,-0.015,102.0,102.0,101.0,13.4,1505.2,326.3,-0.7,1.8,2470.556,13.28,0.018,282.5
2021-09-10T03:13:03,42.805,6.029,0.007,-0.027,-0.039,102.0,102.0,101.0,13.4,1505.2,328.0,-0.7,1.8,2470.526,13.28,0.027,165.5
2021-09-10T03:16:03,42.805,6.029,0.014,0.005,0.017,101.0,102.0,101.0,13.4,1505.2,330.3,-0.7,1.8,2470.557,13.28,0.014,70.4
2021-09-10T03:19:03,42.805,6.029,-0.018,-0.022,-0.028,102.0,102.0,100.0,13.4,1505.2,326.7,-0.8,1.8,2470.557,13.28,0.028,219.3
2021-09-10T03:22:03,42.805,6.029,-0.012,-0.006,-0.028,101.0,103.0,100.0,13.4,1505.2,328.4,-0.8,1.8,2470.54,13.28,0.013,243.4
2021-09-10T03:25:03,42.805,6.029,-0.011,-0.004,0.005,102.0,102.0,100.0,13.4,1505.2,326.4,-0.8,1.8,2470.552,13.28,0.011,250.0
2021-09-10T03:28:03,42.805,6.029,-0.016,-0.023,-0.017,101.0,101.0,102.0,13.3,1505.2,326.7,-0.7,1.8,2470.542,13.28,0.028,214.8
2021-09-10T03:31:03,42.805,6.029,-0.003,0.003,-0.01,101.0,102.0,102.0,13.4,1505.2,329.7,-0.8,1.8,2470.52,13.28,0.004,315.0
2021-09-10T03:34:03,42.805,6.029,-0.014,0.012,-0.014,101.0,102.0,100.0,13.4,1505.2,325.2,-0.8,1.8,2470.53,13.28,0.018,310.6
2021-09-10T03:37:03,42.805,6.029,0.004,-0.035,-0.032,103.0,101.0,101.0,13.4,1505.2,326.7,-0.7,1.8,2470.548,13.28,0.035,173.5
2021-09-10T03:40:03,42.805,6.029,-0.016,-0.008,-0.022,102.0,101.0,100.0,13.4,1505.2,325.1,-0.7,1.8,2470.533,13.28,0.017,243.4
2021-09-10T03:43:03,42.805,6.029,-0.022,-0.019,-0.045,102.0,101.0,100.0,13.3,1505.2,328.8,-0.7,1.8,2470.543,13.28,0.029,229.2
2021-09-10T03:46:03,42.805,6.029,-0.002,-0.006,-0.039,101.0,102.0,101.0,13.4,1505.2,330.7,-0.7,1.8,2470.515,13.28,0.006,198.4
2021-09-10T03:49:03,42.805,6.029,0.013,-0.01,-0.003,102.0,101.0,100.0,13.4,1505.2,327.1,-0.8,1.8,2470.534,13.28,0.016,127.6
2021-09-10T03:52:03,42.805,6.029,0.003,-0.014,-0.004,103.0,102.0,101.0,13.4,1505.2,325.8,-0.7,1.8,2470.542,13.28,0.014,167.9
2021-09-10T03:55:03,42.805,6.029,0.0,-0.041,-0.03,103.0,100.0,101.0,13.3,1505.2,325.8,-0.8,1.8,2470.52,13.28,0.041,180.0
2021-09-10T03:58:03,42.805,6.029,-0.017,-0.016,-0.038,102.0,101.0,101.0,13.3,1505.2,327.1,-0.8,1.8,2470.523,13.28,0.023,226.7
2021-09-10T04:04:03,42.805,6.029,-0.003,-0.015,-0.047,102.0,101.0,101.0,13.4,1505.2,327.5,-0.7,1.8,2470.603,13.28,0.015,191.3
2021-09-10T04:07:03,42.805,6.029,0.018,-0.017,-0.013,101.0,102.0,101.0,13.4,1505.2,327.1,-0.8,1.8,2470.544,13.28,0.024,133.4
2021-09-10T04:10:03,42.805,6.029,0.001,-0.035,-0.016,101.0,100.0,102.0,13.3,1505.2,327.7,-0.7,1.8,2470.52,13.28,0.035,178.4
2021-09-10T04:13:03,42.805,6.029,-0.012,-0.02,-0.014,101.0,102.0,101.0,13.3,1505.2,327.7,-0.7,1.8,2470.551,13.28,0.023,211.0
2021-09-10T04:16:03,42.805,6.029,0.0,-0.024,-0.016,101.0,101.0,100.0,13.4,1505.2,327.5,-0.8,1.8,2470.543,13.28,0.024,180.0
2021-09-10T04:19:03,42.805,6.029,-0.002,-0.026,-0.011,103.0,101.0,101.0,13.3,1505.2,331.1,-0.7,1.8,2470.561,13.28,0.026,184.4
2021-09-10T04:22:03,42.805,6.029,0.015,-0.021,-0.052,103.0,103.0,100.0,13.4,1505.2,329.7,-0.8,1.8,2470.565,13.28,0.025,144.5
2021-09-10T04:25:03,42.805,6.029,-0.005,-0.024,-0.035,104.0,102.0,99.0,13.4,1505.2,328.8,-0.7,1.8,2470.547,13.28,0.024,191.8
2021-09-10T04:28:03,42.805,6.029,-0.015,-0.025,-0.004,101.0,101.0,101.0,13.3,1505.2,325.4,-0.8,1.9,2470.523,13.28,0.029,211.0
2021-09-10T04:31:03,42.805,6.029,-0.005,-0.025,-0.043,102.0,102.0,101.0,13.4,1505.2,325.8,-0.8,1.8,2470.528,13.28,0.025,191.3
2021-09-10T04:34:03,42.805,6.029,0.008,-0.008,-0.007,102.0,102.0,102.0,13.3,1505.2,331.8,-0.8,1.8,2470.548,13.28,0.011,135.0
2021-09-10T04:37:03,42.805,6.029,-0.026,-0.033,-0.019,102.0,102.0,101.0,13.3,1505.2,326.8,-0.7,1.8,2470.524,13.28,0.042,218.2
2021-09-10T04:40:03,42.805,6.029,0.018,-0.025,-0.022,103.0,103.0,100.0,13.3,1505.2,329.9,-0.8,1.8,2470.546,13.28,0.03,144.2
2021-09-10T04:43:03,42.805,6.029,-0.033,-0.017,-0.049,103.0,102.0,100.0,13.4,1505.2,328.8,-0.7,1.8,2470.513,13.28,0.037,242.7
2021-09-10T04:46:03,42.805,6.029,-0.011,0.0,-0.028,102.0,102.0,100.0,13.3,1505.2,327.4,-0.7,1.9,2470.55,13.28,0.011,270.0
2021-09-10T04:49:03,42.805,6.029,-0.01,-0.014,-0.029,103.0,101.0,101.0,13.3,1505.2,328.6,-0.8,1.8,2470.54,13.28,0.017,215.5
2021-09-10T04:52:03,42.805,6.029,0.004,-0.031,-0.034,103.0,101.0,101.0,13.3,1505.2,326.4,-0.7,1.8,2470.533,13.28,0.031,172.7
2021-09-10T04:55:03,42.805,6.029,-0.008,-0.027,-0.005,105.0,101.0,103.0,13.3,1505.2,325.6,-0.8,1.8,2470.496,13.28,0.028,196.5
2021-09-10T04:58:03,42.805,6.029,-0.008,0.002,-0.014,103.0,101.0,101.0,13.3,1505.2,330.2,-0.8,1.8,2470.521,13.28,0.008,284.0
2021-09-10T05:04:03,42.805,6.029,-0.008,-0.006,-0.026,103.0,102.0,101.0,13.4,1505.2,329.5,-0.7,1.8,2470.555,13.28,0.01,233.1
2021-09-10T05:07:03,42.805,6.029,-0.008,-0.021,-0.014,102.0,104.0,101.0,13.3,1505.2,329.6,-0.7,1.8,2470.523,13.28,0.022,200.9
2021-09-10T05:10:03,42.805,6.029,0.009,-0.03,-0.05,103.0,102.0,100.0,13.3,1505.2,329.7,-0.8,1.9,2470.556,13.28,0.031,163.3
2021-09-10T05:13:03,42.805,6.029,0.016,-0.021,-0.02,100.0,103.0,102.0,13.4,1505.2,329.9,-0.8,1.8,2470.568,13.28,0.026,142.7
2021-09-10T05:16:03,42.805,6.029,-0.002,-0.019,-0.01,102.0,102.0,102.0,13.3,1505.2,326.5,-0.8,1.8,2470.552,13.28,0.019,186.0
2021-09-10T05:19:03,42.805,6.029,-0.013,-0.032,-0.018,102.0,103.0,102.0,13.3,1505.2,331.4,-0.8,1.8,2470.557,13.28,0.034,202.1
2021-09-10T05:22:03,42.805,6.029,-0.029,-0.025,-0.013,102.0,104.0,102.0,13.3,1505.2,329.6,-0.7,1.8,2470.533,13.28,0.038,229.2
2021-09-10T05:25:03,42.805,6.029,0.014,-0.019,0.026,104.0,103.0,101.0,13.4,1505.2,328.8,-0.7,1.8,2470.587,13.28,0.023,143.6
2021-09-10T05:28:03,42.805,6.029,-0.012,-0.019,-0.02,103.0,105.0,99.0,13.4,1505.2,327.8,-0.7,1.8,2470.616,13.28,0.022,212.3
2021-09-10T05:31:03,42.805,6.029,-0.026,-0.026,-0.02,103.0,104.0,102.0,13.4,1505.2,325.4,-0.8,1.8,2470.569,13.28,0.036,225.0
2021-09-10T05:34:03,42.805,6.029,-0.005,-0.014,-0.016,104.0,104.0,101.0,13.3,1505.2,331.3,-0.7,1.8,2470.559,13.28,0.014,199.6
2021-09-10T05:37:03,42.805,6.029,0.006,-0.041,-0.024,104.0,103.0,102.0,13.4,1505.2,326.1,-0.8,1.8,2470.559,13.28,0.041,171.7
2021-09-10T05:40:03,42.805,6.029,-0.007,-0.019,-0.043,104.0,103.0,102.0,13.4,1505.2,327.4,-0.8,1.8,2470.576,13.28,0.02,200.2
2021-09-10T05:43:03,42.805,6.029,-0.028,-0.022,-0.035,104.0,102.0,102.0,13.4,1505.2,328.9,-0.8,1.8,2470.568,13.28,0.035,231.8
2021-09-10T05:46:03,42.805,6.029,-0.012,-0.029,-0.056,105.0,103.0,101.0,13.4,1505.2,327.1,-0.7,1.8,2470.569,13.28,0.031,202.5
2021-09-10T05:49:03,42.805,6.029,-0.009,-0.016,-0.025,103.0,103.0,101.0,13.4,1505.2,328.9,-0.8,1.8,2470.552,13.28,0.018,209.4
2021-09-10T05:52:03,42.805,6.029,-0.005,-0.027,-0.02,103.0,103.0,102.0,13.4,1505.2,328.8,-0.7,1.9,2470.586,13.28,0.027,190.5
2021-09-10T05:55:03,42.805,6.029,0.0,-0.021,-0.009,103.0,103.0,102.0,13.3,1505.2,328.5,-0.7,1.8,2470.535,13.28,0.021,180.0
2021-09-10T05:58:03,42.805,6.029,-0.028,-0.018,-0.052,103.0,103.0,101.0,13.4,1505.2,326.1,-0.8,1.8,2470.584,13.28,0.033,237.3
2021-09-10T06:04:03,42.805,6.029,0.016,-0.01,-0.036,103.0,103.0,102.0,13.3,1505.2,329.6,-0.8,1.8,2470.626,13.28,0.018,122.0
2021-09-10T06:07:03,42.805,6.029,-0.004,-0.014,-0.01,103.0,103.0,102.0,13.4,1505.2,330.4,-0.7,1.8,2470.592,13.28,0.014,195.9
2021-09-10T06:10:03,42.805,6.029,0.001,-0.012,-0.027,103.0,103.0,101.0,13.4,1505.2,329.4,-0.8,1.8,2470.606,13.28,0.012,175.2
2021-09-10T06:13:03,42.805,6.029,-0.015,-0.021,-0.04,102.0,103.0,104.0,13.4,1505.2,330.1,-0.7,1.9,2470.615,13.28,0.025,215.5
2021-09-10T06:16:03,42.805,6.029,0.007,-0.013,-0.025,102.0,103.0,102.0,13.4,1505.2,326.1,-0.7,1.8,2470.61,13.28,0.014,151.7
2021-09-10T06:19:03,42.805,6.029,-0.01,-0.016,-0.051,103.0,104.0,101.0,13.4,1505.2,329.0,-0.8,1.8,2470.622,13.28,0.018,212.0
2021-09-10T06:22:03,42.805,6.029,-0.002,-0.006,0.009,105.0,102.0,101.0,13.4,1505.2,329.6,-0.8,1.9,2470.596,13.28,0.006,198.4
2021-09-10T06:25:03,42.805,6.029,-0.007,-0.006,-0.021,105.0,104.0,101.0,13.3,1505.2,325.3,-0.7,1.8,2470.597,13.28,0.009,229.4
2021-09-10T06:28:03,42.805,6.029,-0.002,-0.017,-0.017,103.0,104.0,102.0,13.4,1505.2,329.9,-0.8,1.8,2470.618,13.28,0.017,186.7
2021-09-10T06:31:03,42.805,6.029,0.003,-0.036,-0.004,102.0,103.0,101.0,13.4,1505.2,328.5,-0.7,1.8,2470.642,13.28,0.036,175.2
2021-09-10T06:34:03,42.805,6.029,0.005,-0.027,-0.03,104.0,103.0,102.0,13.4,1505.2,328.6,-0.8,1.8,2470.588,13.28,0.027,169.5
2021-09-10T06:37:03,42.805,6.029,-0.006,-0.013,-0.027,104.0,102.0,102.0,13.4,1505.2,328.2,-0.7,1.8,2470.647,13.28,0.014,204.8
2021-09-10T06:40:03,42.805,6.029,-0.003,0.001,0.001,104.0,102.0,101.0,13.4,1505.2,326.3,-0.8,1.8,2470.619,13.28,0.003,288.4
2021-09-10T06:43:03,42.805,6.029,-0.008,-0.012,-0.024,104.0,104.0,101.0,13.4,1505.2,329.3,-0.8,1.8,2470.629,13.28,0.014,213.7
2021-09-10T06:46:03,42.805,6.029,-0.014,-0.049,-0.054,104.0,103.0,101.0,13.4,1505.2,326.8,-0.7,1.8,2470.652,13.28,0.05,195.9
2021-09-10T06:49:03,42.805,6.029,-0.014,-0.021,-0.044,103.0,103.0,101.0,13.4,1505.2,329.2,-0.7,1.8,2470.608,13.28,0.025,213.7
2021-09-10T06:52:03,42.805,6.029,-0.003,-0.026,-0.042,103.0,102.0,102.0,13.3,1505.2,326.9,-0.8,1.8,2470.665,13.28,0.026,186.6
2021-09-10T06:55:03,42.805,6.029,0.01,-0.034,-0.029,102.0,102.0,102.0,13.3,1505.2,331.5,-0.7,1.8,2470.65,13.29,0.035,163.6
2021-09-10T06:58:03,42.805,6.029,0.004,-0.029,-0.029,103.0,103.0,102.0,13.3,1505.2,328.6,-0.8,1.9,2470.619,13.28,0.029,172.2
2021-09-10T07:04:03,42.805,6.029,-0.013,-0.026,-0.009,103.0,103.0,101.0,13.3,1505.2,325.5,-0.8,1.8,2470.72,13.28,0.029,206.6
2021-09-10T07:07:03,42.805,6.029,-0.03,-0.032,-0.015,103.0,103.0,103.0,13.3,1505.2,331.1,-0.7,1.8,2470.693,13.28,0.043,223.1
2021-09-10T07:10:03,42.805,6.029,-0.009,-0.003,0.001,103.0,104.0,101.0,13.4,1505.2,326.7,-0.8,1.8,2470.673,13.28,0.009,251.6
2021-09-10T07:13:03,42.805,6.029,-0.009,-0.02,-0.019,103.0,104.0,102.0,13.3,1505.2,325.8,-0.7,1.8,2470.691,13.28,0.021,204.2
2021-09-10T07:16:03,42.805,6.029,-0.014,-0.03,0.005,104.0,102.0,102.0,13.3,1505.2,330.4,-0.8,1.8,2470.669,13.28,0.033,205.0
2021-09-10T07:19:03,42.805,6.029,0.004,-0.005,-0.018,103.0,103.0,102.0,13.4,1505.2,328.9,-0.7,1.8,2470.706,13.29,0.006,141.3
2021-09-10T07:22:03,42.805,6.029,0.0,-0.026,-0.027,104.0,102.0,102.0,13.3,1505.2,327.9,-0.7,1.8,2470.647,13.29,0.026,180.0
2021-09-10T07:25:03,42.805,6.029,-0.02,-0.014,-0.044,103.0,102.0,102.0,13.3,1505.2,327.5,-0.7,1.8,2470.665,13.28,0.024,235.0
2021-09-10T07:28:03,42.805,6.029,-0.011,-0.019,-0.016,103.0,103.0,101.0,13.4,1505.2,329.4,-0.8,1.8,2470.664,13.29,0.021,210.1
2021-09-10T07:31:03,42.805,6.029,0.006,-0.016,-0.001,103.0,103.0,102.0,13.4,1505.2,325.8,-0.8,1.8,2470.65,13.29,0.017,159.4
2021-09-10T07:34:03,42.805,6.029,-0.017,-0.006,-0.002,104.0,104.0,100.0,13.4,1505.2,327.9,-0.8,1.9,2470.677,13.29,0.018,250.6
2021-09-10T07:37:03,42.805,6.029,-0.021,-0.002,-0.023,105.0,102.0,102.0,13.4,1505.2,326.7,-0.7,1.8,2470.673,13.29,0.021,264.6
2021-09-10T07:40:03,42.805,6.029,-0.012,-0.012,-0.028,101.0,103.0,102.0,13.3,1505.2,327.1,-0.7,1.8,2470.678,13.29,0.016,225.0
2021-09-10T07:43:03,42.805,6.029,-0.027,-0.036,-0.024,103.0,102.0,103.0,13.4,1505.2,328.7,-0.7,1.8,2470.698,13.28,0.045,216.9
2021-09-10T07:46:03,42.805,6.029,-0.02,-0.019,-0.027,104.0,104.0,101.0,13.4,1505.2,328.9,-0.8,1.8,2470.707,13.29,0.027,226.5
2021-09-10T07:49:03,42.805,6.029,-0.012,-0.016,-0.019,103.0,104.0,101.0,13.4,1505.2,328.4,-0.8,1.8,2470.726,13.28,0.02,216.9
2021-09-10T07:52:03,42.805,6.029,-0.022,-0.015,-0.03,103.0,102.0,101.0,13.3,1505.2,327.9,-0.8,1.8,2470.722,13.28,0.026,235.7
2021-09-10T07:55:03,42.805,6.029,-0.012,-0.016,-0.032,103.0,102.0,102.0,13.3,1505.2,325.4,-0.8,1.8,2470.687,13.28,0.02,216.9
2021-09-10T07:58:03,42.805,6.029,-0.017,-0.022,-0.026,103.0,103.0,103.0,13.4,1505.2,328.2,-0.8,1.8,2470.716,13.29,0.027,217.7
2021-09-10T08:04:03,42.805,6.029,-0.036,-0.004,-0.023,103.0,102.0,101.0,13.3,1505.2,330.7,-0.8,1.8,2470.71,13.28,0.036,263.7
2021-09-10T08:07:03,42.805,6.029,-0.022,0.003,-0.001,103.0,103.0,102.0,13.4,1505.2,329.4,-0.8,1.8,2470.765,13.28,0.022,277.8
2021-09-10T08:10:03,42.805,6.029,-0.016,0.003,-0.022,103.0,102.0,101.0,13.4,1505.2,329.6,-0.7,1.8,2470.765,13.28,0.016,280.6
2021-09-10T08:13:03,42.805,6.029,-0.017,-0.013,-0.027,104.0,103.0,102.0,13.3,1505.2,330.7,-0.7,1.8,2470.739,13.28,0.021,232.6
2021-09-10T08:16:03,42.805,6.029,-0.024,-0.011,-0.033,104.0,103.0,101.0,13.4,1505.2,331.0,-0.8,1.8,2470.728,13.28,0.026,245.4
2021-09-10T08:19:03,42.805,6.029,-0.027,-0.021,-0.033,103.0,102.0,103.0,13.4,1505.2,329.3,-0.7,1.8,2470.668,13.28,0.034,232.1
2021-09-10T08:22:03,42.805,6.029,-0.019,-0.022,-0.013,103.0,104.0,101.0,13.4,1505.2,327.2,-0.8,1.9,2470.726,13.28,0.029,220.8
2021-09-10T08:25:03,42.805,6.029,-0.013,-0.01,-0.035,103.0,102.0,101.0,13.4,1505.2,327.6,-0.7,1.8,2470.729,13.28,0.016,232.4
2021-09-10T08:28:03,42.805,6.029,-0.017,-0.011,-0.032,104.0,101.0,102.0,13.3,1505.2,329.6,-0.7,1.8,2470.719,13.28,0.02,237.1
2021-09-10T08:31:03,42.805,6.029,0.001,-0.025,0.003,102.0,103.0,101.0,13.4,1505.2,325.5,-0.7,1.8,2470.727,13.28,0.025,177.7
2021-09-10T08:34:03,42.805,6.029,-0.018,0.0,0.006,105.0,104.0,101.0,13.3,1505.2,327.1,-0.7,1.8,2470.729,13.28,0.018,270.0
2021-09-10T08:37:03,42.805,6.029,-0.011,-0.027,-0.013,103.0,103.0,101.0,13.3,1505.2,329.8,-0.7,1.8,2470.724,13.28,0.029,202.2
2021-09-10T08:40:03,42.805,6.029,0.005,-0.023,-0.001,104.0,102.0,102.0,13.4,1505.2,330.7,-0.8,1.8,2470.71,13.29,0.023,167.7
2021-09-10T08:43:03,42.805,6.029,-0.009,-0.017,0.009,102.0,103.0,101.0,13.3,1505.2,331.0,-0.7,1.8,2470.703,13.28,0.019,207.9
2021-09-10T08:46:03,42.805,6.029,-0.038,-0.031,-0.015,104.0,103.0,101.0,13.3,1505.2,330.9,-0.8,1.8,2470.71,13.28,0.049,230.8
2021-09-10T08:49:03,42.805,6.029,-0.025,-0.018,-0.018,103.0,103.0,102.0,13.4,1505.2,326.4,-0.8,1.8,2470.729,13.28,0.03,234.2
2021-09-10T08:52:03,42.805,6.029,-0.008,-0.025,-0.011,103.0,101.0,101.0,13.4,1505.2,329.4,-0.7,1.8,2470.705,13.28,0.026,197.7
2021-09-10T08:55:03,42.805,6.029,-0.017,-0.021,-0.021,103.0,103.0,100.0,13.4,1505.2,325.6,-0.8,1.8,2470.741,13.28,0.027,219.0
2021-09-10T08:58:03,42.805,6.029,-0.039,-0.013,0.005,103.0,103.0,101.0,13.4,1505.2,327.5,-0.8,1.8,2470.717,13.28,0.041,251.6
2021-09-10T09:04:03,42.805,6.029,-0.004,-0.032,0.001,104.0,102.0,103.0,13.4,1505.2,328.0,-0.7,1.9,2470.737,13.28,0.032,187.1
2021-09-10T09:07:03,42.805,6.029,0.002,-0.02,-0.026,104.0,103.0,102.0,13.4,1505.2,328.8,-0.8,1.8,2470.708,13.28,0.02,174.3
2021-09-10T09:10:03,42.805,6.029,-0.002,-0.015,-0.022,105.0,103.0,100.0,13.3,1505.2,329.8,-0.8,1.8,2470.778,13.28,0.015,187.6
2021-09-10T09:13:03,42.805,6.029,-0.006,-0.006,-0.012,103.0,103.0,101.0,13.3,1505.2,328.0,-0.8,1.8,2470.758,13.28,0.008,225.0
2021-09-10T09:16:03,42.805,6.029,-0.017,-0.034,-0.028,103.0,102.0,101.0,13.3,1505.2,325.5,-0.8,1.9,2470.736,13.28,0.038,206.6
2021-09-10T09:19:03,42.805,6.029,-0.021,-0.025,-0.05,103.0,103.0,101.0,13.4,1505.2,329.1,-0.8,1.8,2470.735,13.28,0.032,220.0
2021-09-10T09:22:03,42.805,6.029,-0.009,-0.013,-0.011,103.0,102.0,102.0,13.3,1505.2,328.1,-0.7,1.8,2470.731,13.28,0.015,214.7
2021-09-10T09:25:03,42.805,6.029,0.016,-0.031,-0.013,103.0,102.0,102.0,13.4,1505.2,327.1,-0.7,1.8,2470.798,13.28,0.034,152.7
2021-09-10T09:28:03,42.805,6.029,-0.014,-0.014,-0.027,103.0,104.0,102.0,13.4,1505.2,328.1,-0.7,1.8,2470.729,13.29,0.019,225.0
2021-09-10T09:31:03,42.805,6.029,0.004,-0.01,0.017,104.0,102.0,103.0,13.4,1505.2,329.6,-0.7,1.8,2470.734,13.29,0.01,158.2
2021-09-10T09:34:03,42.805,6.029,-0.021,-0.04,-0.041,104.0,102.0,101.0,13.4,1505.2,326.1,-0.7,1.8,2470.72,13.29,0.045,207.7
2021-09-10T09:37:03,42.805,6.029,-0.014,-0.021,-0.025,105.0,102.0,101.0,13.4,1505.2,326.6,-0.8,1.8,2470.707,13.29,0.025,213.7
2021-09-10T09:40:03,42.805,6.029,-0.001,-0.015,0.003,105.0,104.0,101.0,13.3,1505.2,328.1,-0.8,1.8,2470.734,13.29,0.015,183.8
2021-09-10T09:43:03,42.805,6.029,-0.005,-0.032,-0.028,104.0,103.0,102.0,13.3,1505.2,331.6,-0.7,1.8,2470.731,13.29,0.032,188.9
2021-09-10T09:46:03,42.805,6.029,-0.004,-0.037,-0.008,103.0,102.0,102.0,13.4,1505.2,327.7,-0.8,1.8,2470.727,13.29,0.037,186.2
2021-09-10T09:49:03,42.805,6.029,-0.009,-0.013,-0.004,103.0,102.0,101.0,13.4,1505.2,326.9,-0.8,1.8,2470.715,13.28,0.015,214.7
2021-09-10T09:52:03,42.805,6.029,0.006,-0.012,-0.018,103.0,103.0,101.0,13.4,1505.2,327.3,-0.8,1.8,2470.692,13.28,0.013,153.4